Date,TemperatureHighF,TemperatureAvgF,TemperatureLowF,DewpointHighF,DewpointAvgF,DewpointLowF,HumidityHigh,HumidityAvg,HumidityLow,PressureMaxIn,PressureMinIn,WindSpeedMaxMPH,WindSpeedAvgMPH,GustSpeedMaxMPH,PrecipitationSumIn
2012-3-9,73.6,73.6,73.6,69.2,68.9,68.8,86,85,85,29.97,29.93,12,11,14,0.00
2012-3-10,79.2,74.7,70.0,69.5,68.2,66.5,94,80,68,30.18,29.85,23,11,23,0.09
2012-3-11,80.8,74.2,70.0,71.5,67.8,63.9,96,81,64,30.12,29.97,16,9,22,0.08
2012-3-12,80.6,73.6,70.0,69.2,64.8,59.6,96,74,57,30.16,29.95,21,12,21,0.05
2012-3-13,81.0,74.1,70.9,67.8,63.0,57.1,86,69,56,30.09,29.91,20,10,20,0.01
2012-3-14,81.9,73.3,71.2,65.1,62.6,60.1,76,69,53,30.03,29.83,17,9,17,0.00
2012-3-15,83.7,75.3,69.3,68.1,64.7,61.7,88,70,55,30.09,29.79,20,9,20,0.01
2012-3-16,83.8,75.0,70.7,69.7,66.3,62.9,86,75,61,30.16,29.64,25,10,25,0.04
2012-3-17,83.8,75.7,72.0,68.9,66.8,63.8,87,74,58,30.10,29.26,20,9,20,0.00
2012-3-18,81.3,73.6,68.7,68.7,66.8,65.2,93,79,64,30.19,29.53,20,8,20,0.31
2012-3-19,83.5,76.4,70.7,67.9,66.0,61.9,88,71,52,30.19,29.71,20,8,20,0.01
2012-3-20,83.7,74.6,63.7,68.4,66.4,62.2,97,76,59,30.16,29.67,12,6,12,0.00
2012-3-21,83.1,75.3,67.6,69.0,66.5,64.2,92,74,60,30.19,29.69,18,9,18,0.21
2012-3-22,82.9,75.5,70.0,66.7,64.9,63.0,86,70,55,30.14,29.65,17,11,17,0.09
2012-3-23,82.0,74.1,70.5,66.7,64.9,62.6,86,73,55,30.12,29.56,23,12,23,0.00
2012-3-24,81.9,74.6,72.0,68.3,65.2,62.3,82,73,58,30.12,26.75,25,12,25,0.00
2012-3-25,83.1,74.7,70.7,65.1,63.1,60.9,82,68,50,30.02,29.34,21,10,21,0.01
2012-3-26,81.7,74.7,69.8,65.7,62.5,60.3,83,66,50,29.97,28.55,19,10,19,0.00
2012-3-27,81.9,73.7,68.4,66.5,62.7,58.2,86,69,53,30.01,29.10,21,9,21,0.04
2012-3-28,83.1,75.3,70.2,63.5,59.9,57.0,72,59,47,30.04,29.14,14,7,14,0.00
2012-3-29,82.6,75.8,70.7,64.3,61.3,57.7,72,61,47,29.99,28.87,14,7,16,0.00
2012-3-30,81.9,76.9,72.7,66.3,64.3,61.9,76,65,53,29.93,28.80,23,12,23,0.00
2012-3-31,83.5,76.0,72.5,67.8,64.6,60.7,82,68,52,30.13,28.86,19,10,22,0.00
2012-4-1,84.6,76.9,70.2,69.4,67.7,65.5,85,74,59,30.01,28.98,15,6,16,0.00
2012-4-2,84.4,76.4,68.0,69.2,66.8,64.6,93,73,54,29.97,28.72,10,4,12,0.01
2012-4-3,83.8,76.7,72.3,68.9,67.1,65.2,82,73,58,29.67,28.68,17,7,20,0.00
2012-4-4,82.2,76.4,73.2,70.7,68.1,66.0,82,76,62,29.62,28.27,18,8,18,0.00
2012-4-5,81.7,75.5,73.8,67.9,65.9,63.1,80,72,57,29.84,28.89,16,9,17,0.00
2012-4-6,84.0,75.2,71.2,69.0,66.6,64.8,89,75,59,30.16,29.37,17,10,21,0.02
2012-4-7,81.7,75.4,72.9,67.3,65.3,62.9,81,71,58,30.09,29.05,15,9,18,0.00
2012-4-8,73.2,71.0,69.1,67.2,65.5,63.3,93,83,72,30.34,29.52,24,14,25,0.02
2012-4-9,79.5,73.7,68.7,65.0,63.1,59.1,86,70,56,30.26,29.75,19,11,19,0.00
2012-4-10,81.3,73.0,68.9,66.0,63.0,60.2,84,71,54,30.25,29.71,21,10,23,0.01
2012-4-11,83.7,76.0,70.3,67.3,64.2,61.2,79,67,56,30.26,29.67,15,8,16,0.01
2012-4-12,82.6,73.5,67.5,67.7,66.2,64.1,89,78,59,30.42,29.85,14,4,14,0.00
2012-4-13,86.2,75.5,64.6,69.7,66.5,62.8,95,75,54,30.38,29.32,11,4,12,0.00
2012-4-14,84.7,77.3,71.8,68.8,67.2,66.3,86,72,56,30.13,29.77,11,7,12,0.00
2012-4-15,84.4,77.2,69.4,70.4,67.2,63.8,91,72,58,30.15,29.24,18,9,86,0.02
2012-4-16,83.8,77.7,73.8,68.2,65.5,63.0,79,67,54,30.47,29.07,17,10,17,0.00
2012-4-17,83.7,76.7,73.4,66.6,64.2,59.9,78,66,48,30.57,29.32,23,11,23,0.00
2012-4-18,84.2,76.6,72.9,67.0,64.6,61.9,80,67,50,30.64,29.70,21,11,21,0.00
2012-4-19,84.7,76.8,72.9,66.6,63.4,59.6,76,64,46,30.58,29.84,20,10,20,0.00
2012-4-20,84.0,76.2,71.8,66.4,63.3,61.3,79,65,49,30.50,29.96,18,9,18,0.00
2012-4-21,82.9,75.8,71.6,66.2,64.1,60.5,81,67,53,30.41,29.94,19,10,19,0.00
2012-4-22,81.3,73.0,69.3,68.1,66.0,63.5,90,79,60,30.44,29.69,27,11,27,0.12
2012-4-23,78.1,73.5,69.4,68.5,64.0,59.9,91,72,63,30.39,28.74,24,13,24,0.09
2012-4-24,81.7,74.8,70.7,66.4,62.9,59.8,77,67,54,30.25,29.37,21,11,21,0.00
2012-4-25,81.9,75.1,69.3,67.3,64.7,61.2,83,70,57,30.20,29.23,21,9,21,0.00
2012-4-26,84.6,75.9,69.3,68.2,66.3,63.9,89,73,55,30.30,29.04,17,7,17,0.00
2012-4-27,70.9,68.8,66.2,67.3,65.5,64.1,94,89,85,29.72,28.63,8,2,8,0.06
2012-4-28,82.6,76.7,73.8,68.3,67.0,65.9,80,72,60,30.32,29.47,17,9,17,0.06
2012-4-29,82.8,76.3,73.0,68.9,67.1,65.6,82,73,61,30.30,29.65,24,11,24,0.00
2012-5-15,75.0,74.9,74.8,66.2,65.7,64.8,74,73,72,30.04,29.38,8,5,8,0.13
2012-5-16,85.1,78.2,70.9,70.4,67.2,65.2,87,70,54,30.23,29.56,12,7,12,0.00
2012-5-17,84.4,77.9,73.6,69.5,67.1,65.1,84,70,54,30.44,29.82,14,8,14,0.00
2012-5-18,85.1,78.7,74.1,68.8,66.9,64.0,80,68,55,30.45,30.21,12,7,12,0.00
2012-5-19,85.6,78.1,73.9,68.8,66.9,64.9,79,69,56,30.36,29.73,15,8,15,0.00
2012-5-20,85.1,77.5,73.4,70.0,67.5,64.0,84,72,57,30.00,29.13,13,7,13,0.11
2012-5-21,84.9,79.3,74.3,69.5,67.8,66.8,79,68,57,30.30,27.31,15,8,15,0.01
2012-5-22,86.2,79.3,73.8,68.2,66.7,64.3,77,66,52,30.40,30.02,15,10,20,0.00
2012-5-23,84.7,76.9,73.0,69.1,66.7,64.1,81,71,55,30.28,29.62,20,11,21,0.05
2012-5-24,84.9,78.8,74.8,68.7,67.5,66.5,79,69,57,30.25,29.54,16,11,16,0.05
2012-5-25,86.5,77.9,73.9,69.5,67.7,64.8,84,71,53,30.20,29.28,19,11,19,0.00
2012-5-26,86.4,77.9,71.6,69.9,67.8,65.6,87,72,52,30.29,28.69,24,11,24,0.05
2012-5-27,85.5,77.4,72.5,69.7,67.5,63.6,85,72,54,30.47,29.71,21,12,21,0.00
2012-5-28,85.3,77.9,74.5,68.3,64.9,60.1,76,65,52,30.45,29.84,23,12,23,0.00
2012-5-29,84.0,77.2,73.2,67.9,65.4,63.0,79,67,54,30.49,29.59,26,12,26,0.00
2012-5-30,83.5,76.6,73.4,69.5,66.5,63.3,82,71,60,30.55,29.96,23,10,23,0.04
2012-5-31,84.4,76.9,70.3,68.9,66.2,64.0,86,70,55,30.50,29.79,21,10,21,0.04
2012-6-1,84.2,77.1,70.2,67.8,66.5,64.3,83,70,55,30.48,29.24,27,12,27,0.01
2012-6-2,83.3,77.2,72.0,66.5,64.5,62.0,80,65,53,30.50,29.68,22,12,22,0.01
2012-6-3,84.4,77.2,73.2,66.8,64.7,61.4,76,66,54,30.42,29.36,22,11,22,0.00
2012-6-4,85.5,77.6,73.2,69.6,67.1,64.8,79,70,56,30.33,29.25,17,10,17,0.00
2012-6-5,84.2,77.4,73.6,69.7,67.6,65.4,85,72,57,30.45,29.44,19,9,19,0.00
2012-6-6,85.5,77.2,72.3,71.5,68.3,65.2,89,74,56,30.41,29.76,22,9,22,0.05
2012-6-7,86.4,78.9,74.1,69.5,67.5,63.9,80,69,53,30.41,29.61,20,8,20,0.00
2012-6-8,86.2,78.8,74.7,69.8,67.5,64.3,82,69,51,30.49,29.84,18,9,20,0.00
2012-6-9,86.7,78.6,72.0,68.8,67.0,64.4,82,68,52,30.35,29.57,17,9,17,0.00
2012-6-10,86.0,78.2,72.3,69.1,67.3,65.2,84,70,53,30.26,29.62,17,8,17,0.00
2012-6-11,87.1,78.7,73.2,70.4,68.2,66.7,85,71,56,30.32,29.59,13,6,13,0.02
2012-6-12,86.9,79.0,73.8,70.5,68.3,66.3,84,70,55,30.23,29.64,14,7,14,0.00
2012-6-13,87.3,78.4,72.0,72.7,69.8,67.5,90,75,58,30.38,29.85,13,6,16,0.07
2012-6-14,87.8,79.9,74.3,70.9,68.5,65.8,82,69,53,30.45,30.06,14,6,14,0.00
2012-6-15,87.1,78.6,74.1,68.7,67.3,65.6,79,69,53,30.41,29.04,14,6,14,0.00
2012-6-16,87.6,78.6,73.9,70.6,67.7,64.7,87,70,53,30.40,29.82,23,9,23,0.01
2012-6-17,88.0,78.5,75.2,69.4,67.6,65.8,78,70,53,30.47,29.24,19,10,19,0.00
2012-6-18,84.9,77.4,74.5,67.7,66.7,65.5,77,70,55,30.44,29.76,22,12,22,0.00
2012-6-19,84.9,77.3,71.4,72.6,68.4,65.1,86,74,63,30.23,29.21,25,10,25,0.02
2012-6-20,82.8,76.6,71.2,69.4,67.4,14.1,90,74,60,30.37,29.62,17,8,17,0.04
2012-6-21,87.1,78.5,74.3,69.7,67.2,65.6,79,68,54,30.38,29.78,16,8,16,0.00
2012-6-22,86.7,78.6,74.3,70.6,68.7,67.2,84,72,56,30.41,29.80,18,8,18,0.00
2012-6-23,84.6,77.2,71.8,71.2,68.4,64.4,89,75,60,30.50,27.10,21,10,21,0.15
2012-6-24,86.4,77.9,70.3,70.1,67.5,65.3,88,71,55,30.43,29.55,21,11,21,0.05
2012-6-25,84.6,77.0,72.0,72.2,68.2,65.9,88,75,57,30.53,29.69,20,10,22,0.09
2012-6-26,84.2,76.1,72.1,70.7,68.6,66.4,87,78,61,30.34,29.60,14,7,21,0.09
2012-6-27,84.4,77.1,69.6,68.0,66.1,64.4,89,69,55,30.36,29.18,15,7,28,0.05
2012-6-28,84.2,77.3,74.1,69.7,67.4,55.0,78,72,58,30.32,29.04,13,6,19,0.00
2012-6-29,87.1,78.8,73.2,68.7,67.2,65.6,82,68,53,30.69,29.44,11,6,18,0.01
2012-6-30,86.2,78.4,74.3,71.1,67.6,65.9,80,70,55,30.62,29.65,11,5,17,0.00
2012-7-1,85.3,78.4,72.3,70.8,68.5,67.1,85,72,58,30.63,30.09,12,5,18,0.02
2012-7-2,86.7,79.5,71.6,69.1,67.3,65.4,87,67,55,30.66,30.08,12,5,20,0.04
2012-7-3,83.5,76.6,72.3,70.2,67.4,65.8,84,73,59,30.56,30.11,10,5,17,0.12
2012-7-4,75.2,74.5,73.9,67.4,66.8,66.1,79,77,75,30.54,30.08,8,4,11,0.00
2012-7-20,83.7,77.5,74.3,68.3,66.3,64.9,78,69,55,30.36,29.16,11,7,17,0.00
2012-7-21,84.7,77.5,73.2,69.2,67.5,66.2,80,72,56,30.54,29.67,9,5,14,0.01
2012-7-22,86.9,78.5,74.5,68.6,67.2,65.8,79,69,53,30.66,29.81,10,6,16,0.00
2012-7-23,84.9,78.2,72.5,70.0,68.1,66.5,84,72,56,30.56,30.32,7,5,12,0.01
2012-7-24,84.6,78.8,71.6,70.2,67.9,66.3,87,70,58,30.52,30.16,8,4,12,0.05
2012-7-25,86.7,78.4,72.3,69.1,67.1,65.4,83,69,55,30.62,30.17,11,6,17,0.06
2012-7-26,83.5,76.9,73.8,70.2,67.1,64.8,84,72,59,30.53,30.10,11,5,15,0.65
2012-7-27,87.3,79.3,73.9,70.2,67.3,65.0,85,67,49,30.54,30.10,12,5,17,0.06
2012-7-28,86.9,79.4,74.1,71.3,69.2,67.2,84,71,56,30.60,29.90,13,5,21,0.04
2012-7-29,87.3,78.5,73.0,70.9,69.0,66.9,87,73,56,30.55,29.89,14,6,21,0.02
2012-7-30,87.1,79.9,76.5,72.4,70.5,67.6,83,73,59,30.59,30.13,11,6,19,0.02
2012-7-31,87.6,80.4,75.9,71.6,69.4,67.6,80,70,54,30.67,30.28,12,5,20,0.00
2012-8-1,87.6,80.8,76.5,71.6,68.6,65.5,79,67,52,30.67,30.35,12,5,17,0.00
2012-8-2,86.7,79.3,75.4,71.0,68.3,66.3,78,69,55,30.68,30.27,11,5,16,0.00
2012-8-3,87.4,80.0,75.7,69.4,68.3,66.6,76,68,54,30.68,30.29,11,5,16,0.00
2012-8-4,88.3,80.3,75.2,69.7,68.1,66.5,79,67,52,30.73,30.25,12,5,19,0.00
2012-8-5,88.7,80.5,75.7,70.5,68.6,66.7,79,68,52,30.64,30.20,11,4,16,0.00
2012-8-6,87.1,80.0,75.4,71.7,68.4,66.4,79,68,53,30.68,29.95,14,5,17,0.00
2012-8-7,86.9,80.2,75.6,69.6,67.6,65.7,78,66,52,30.62,29.94,14,6,21,0.00
2012-8-8,86.9,79.6,72.7,71.3,68.3,66.4,85,69,54,30.55,29.71,13,6,21,0.05
2012-8-9,87.1,79.9,76.1,71.2,68.6,65.8,80,69,50,30.62,29.92,11,5,17,0.00
2012-8-10,87.1,79.9,73.8,69.2,67.1,62.8,84,66,49,30.60,29.99,11,5,16,0.00
2012-8-11,87.3,79.1,73.6,72.2,68.3,66.5,86,70,53,30.60,29.79,13,5,17,0.04
2012-8-12,87.3,80.0,74.7,71.4,69.3,66.7,83,70,56,30.56,29.66,11,5,20,0.00
2012-8-13,88.0,80.6,74.8,72.2,70.1,68.5,87,71,55,30.49,29.47,12,5,18,0.02
2012-8-14,86.5,79.7,73.4,71.5,69.3,66.9,88,71,55,30.36,29.29,13,6,21,0.04
2012-8-15,88.2,80.5,74.8,70.8,68.1,66.1,82,67,50,30.41,29.50,16,6,21,0.00
2012-8-16,87.6,80.2,76.5,69.7,67.9,64.7,77,67,49,30.41,29.69,11,6,17,0.00
2012-8-17,77.7,77.7,77.7,68.4,68.4,68.4,73,73,73,30.14,30.14,3,3,14,0.00
2012-8-18,87.1,80.4,75.7,72.5,69.5,65.9,79,70,53,30.48,29.87,11,5,19,0.04
2012-8-19,87.6,80.2,73.0,71.8,69.8,68.2,88,71,56,30.50,29.85,13,5,17,0.02
2012-8-20,87.8,81.4,76.3,71.2,70.1,68.7,83,69,54,30.56,29.77,11,5,17,0.00
2012-8-21,87.3,81.2,76.1,72.9,69.6,67.5,81,68,56,30.47,29.76,11,5,15,0.00
2012-8-22,86.7,79.7,74.1,72.0,69.8,67.9,87,72,58,30.49,29.99,11,5,16,0.06
2012-8-23,87.3,82.1,76.3,73.8,70.5,68.2,81,68,57,30.37,29.69,11,5,15,0.11
2012-8-24,84.9,84.9,84.9,71.4,71.4,71.4,64,64,64,30.26,30.26,4,4,11,0.11
2012-9-1,86.2,79.8,75.7,70.9,68.3,66.4,80,68,55,30.48,29.87,11,6,17,0.00
2012-9-2,85.8,79.0,72.7,70.1,68.1,65.0,83,70,55,30.30,29.74,12,7,19,0.02
2012-9-3,85.8,79.8,76.3,70.6,68.2,66.5,76,68,56,30.24,29.59,10,7,16,0.00
2012-9-4,86.2,79.7,74.5,70.6,68.7,67.3,80,70,56,30.36,29.72,11,6,16,0.02
2012-9-5,86.0,78.9,74.8,70.7,68.4,66.5,85,71,54,30.33,29.54,10,6,14,0.04
2012-9-6,86.5,79.7,75.2,70.2,68.2,66.1,79,69,55,30.25,29.60,12,6,16,0.00
2012-9-7,84.9,75.1,70.3,71.3,68.2,64.7,91,80,55,30.17,29.40,8,2,12,0.09
2012-9-8,86.9,78.8,69.8,72.7,70.1,67.4,94,76,56,30.47,28.91,11,4,16,0.04
2012-9-9,86.9,79.9,76.5,72.4,70.5,68.9,83,73,57,30.44,29.53,14,5,21,0.02
2012-9-10,86.4,79.9,76.5,70.5,68.8,66.9,78,69,55,30.37,29.29,16,6,23,0.00
2012-9-11,86.7,79.4,73.6,69.5,67.4,65.4,80,67,54,30.29,29.42,17,6,23,0.00
2012-9-12,86.2,79.1,75.4,70.2,67.8,65.8,78,69,53,30.26,29.00,15,6,24,0.00
2012-9-13,85.8,79.0,76.1,70.0,67.8,65.3,79,69,57,30.29,27.94,13,6,20,0.00
2012-9-14,88.0,79.8,74.5,70.4,67.9,65.3,80,67,53,30.33,29.53,14,5,26,0.00
2012-9-15,86.4,80.7,75.6,69.9,67.9,66.2,77,65,54,30.33,29.50,11,5,17,0.00
2012-9-16,87.8,81.8,75.6,69.4,67.5,66.0,76,63,52,30.20,28.72,10,5,16,0.00
2012-9-17,83.3,83.3,83.3,67.0,67.0,67.0,58,58,58,30.03,30.03,6,6,11,0.00
2012-9-18,87.1,78.8,70.9,70.0,67.7,64.4,85,69,53,30.23,29.29,11,4,16,0.05
2012-9-19,76.8,76.5,76.3,69.1,68.2,67.6,78,75,74,30.03,29.61,9,4,11,0.00
2012-9-20,88.3,78.2,71.2,72.7,71.1,69.1,94,80,58,30.44,29.69,8,2,11,0.38
2012-9-21,87.8,78.3,69.8,75.3,70.1,67.7,95,77,57,30.46,29.60,12,4,15,0.02
2012-9-22,86.7,79.7,75.4,71.5,69.5,67.1,83,71,56,30.40,29.26,14,6,20,0.00
2012-9-23,86.0,79.0,74.7,75.5,71.8,69.1,89,79,65,30.17,28.84,14,6,20,0.09
2012-9-24,85.5,79.3,75.2,72.9,69.7,68.0,84,73,58,30.24,28.87,15,7,18,0.01
2012-9-25,88.2,79.3,75.4,70.8,68.4,66.1,82,70,52,30.30,29.01,11,6,20,0.01
2012-9-26,86.4,79.1,73.4,71.1,69.0,67.5,87,72,57,30.28,28.82,8,6,18,0.02
2012-9-27,86.9,79.1,72.7,71.2,68.9,67.0,90,71,55,30.34,28.70,9,6,19,0.01
2012-9-28,86.4,78.9,73.9,71.5,69.1,66.5,87,72,54,30.31,29.13,9,6,21,0.00
2012-9-29,86.7,79.1,75.2,71.5,69.1,65.6,79,72,57,30.41,29.28,8,4,17,0.00
2012-9-30,87.3,82.1,74.8,71.5,69.5,67.0,83,66,54,30.23,29.11,7,4,16,0.00
2012-10-1,85.1,85.1,85.1,69.7,69.7,69.7,60,60,60,29.85,29.85,4,4,9,0.00
2012-10-2,87.4,82.8,77.0,71.6,69.9,69.4,80,65,56,30.12,29.41,5,3,11,0.00
2012-10-3,87.3,79.4,76.3,71.7,69.5,68.2,82,72,57,30.01,28.86,8,4,14,0.00
2012-10-4,87.3,79.7,74.3,72.1,69.1,67.8,82,70,55,29.82,28.13,7,3,14,0.00
2012-10-5,86.4,77.9,68.7,71.0,68.5,65.7,91,74,57,30.10,28.19,6,2,13,0.00
2012-10-6,92.8,81.2,68.0,70.8,68.4,65.3,92,67,46,29.81,28.71,8,3,16,0.00
2012-10-7,90.9,80.7,73.0,71.1,68.9,65.5,82,68,44,29.74,28.09,7,3,15,0.00
2012-10-8,91.9,81.6,72.9,70.6,69.2,67.1,83,67,48,30.13,28.41,9,3,17,0.00
2012-10-9,93.2,81.0,72.3,72.7,69.1,65.8,87,69,47,30.31,29.16,7,2,14,0.00
2012-10-10,88.5,77.7,71.8,75.7,71.5,68.9,92,82,59,30.16,29.48,8,2,14,0.00
2012-10-11,88.3,80.6,76.3,74.3,72.0,70.1,91,76,61,30.36,29.12,7,4,14,0.02
2012-10-12,87.1,80.3,76.6,72.1,69.9,67.4,82,71,58,30.28,28.87,8,6,17,0.00
2012-10-13,87.3,79.0,77.0,73.7,70.9,68.7,83,76,61,30.35,29.41,8,5,16,0.00
2012-10-14,86.4,78.3,74.5,73.9,71.6,70.2,89,80,63,30.08,29.03,10,6,22,0.07
2012-10-15,80.4,74.1,73.4,71.7,70.4,69.9,90,88,71,30.14,29.27,10,6,20,0.02
2012-10-16,86.9,79.2,75.0,72.6,70.4,68.1,87,75,60,30.04,28.97,7,4,15,0.02
2012-10-17,87.3,78.5,68.5,73.3,68.9,65.8,92,73,54,30.31,28.83,8,3,16,0.00
2012-10-18,87.1,78.4,69.3,73.1,69.1,65.8,91,74,57,30.36,29.58,8,4,18,0.14
2012-10-19,86.0,79.8,76.1,70.2,68.3,65.6,80,68,52,30.35,29.78,9,6,21,0.00
2012-10-20,86.9,79.8,75.2,71.9,70.0,67.3,84,73,57,30.36,29.63,9,6,22,0.00
2012-10-21,86.4,79.9,76.1,70.9,68.5,66.7,78,69,55,30.38,29.57,10,6,19,0.00
2012-10-22,86.2,78.8,76.3,70.0,68.2,66.7,78,70,56,30.35,29.59,12,5,15,0.00
2012-10-23,88.3,79.5,75.4,71.8,69.5,65.9,88,72,49,30.38,29.58,8,4,19,0.00
2012-10-24,87.3,78.2,73.4,73.9,72.3,69.6,93,82,63,30.29,29.55,6,2,11,0.09
2012-10-25,87.3,76.9,71.8,76.7,71.8,69.0,95,85,63,30.24,29.15,8,1,11,0.01
2012-10-26,89.1,77.7,70.2,77.9,71.1,68.1,95,81,61,30.39,28.33,6,2,12,0.00
2012-10-27,88.3,78.4,70.9,78.0,70.5,68.1,92,78,58,30.54,29.29,8,3,17,0.00
2012-10-28,85.5,78.2,73.8,71.6,69.8,67.2,91,76,58,30.36,27.72,8,5,17,0.04
2012-10-29,86.0,79.1,74.1,70.6,68.6,66.1,84,71,54,30.49,29.22,9,6,19,0.00
2012-10-30,85.3,78.3,73.4,70.8,69.0,66.5,87,73,57,30.48,29.78,8,5,19,0.01
2012-10-31,86.2,79.4,74.3,71.6,68.1,65.9,85,69,55,30.45,29.82,7,4,16,0.01
2012-11-1,87.3,76.7,65.1,73.8,66.2,63.1,94,71,52,30.48,29.92,6,2,12,0.00
2012-11-2,86.9,75.6,65.1,70.9,64.8,62.1,94,71,50,30.85,29.43,7,2,15,0.00
2012-11-3,91.0,78.6,67.8,69.0,64.5,59.9,87,65,36,30.38,29.35,8,2,14,0.00
2012-11-4,87.6,74.6,66.4,73.3,66.1,63.1,94,76,51,30.27,29.58,6,1,11,0.00
2012-11-5,86.4,75.9,65.7,72.1,68.2,63.4,96,78,56,30.35,29.44,8,4,17,0.00
2012-11-6,77.7,77.7,77.7,70.4,70.4,70.4,78,78,78,30.03,30.03,7,7,14,0.00
2012-11-7,77.7,77.7,77.7,70.4,70.4,70.4,78,78,78,30.03,30.03,7,7,14,0.00
2012-11-8,77.7,77.7,77.7,70.4,70.4,70.4,78,78,78,30.03,30.03,7,7,14,0.00
2012-11-9,83.8,78.0,77.0,70.4,69.0,65.2,78,74,60,30.65,29.81,9,7,19,0.07
2012-11-10,84.7,77.7,75.2,68.2,66.9,64.4,77,69,56,30.60,30.21,13,7,21,0.01
2012-11-11,86.2,78.7,75.4,68.9,67.1,64.5,77,68,54,30.62,30.12,9,6,20,0.00
2012-11-12,85.5,78.4,75.0,69.2,67.6,66.0,80,70,56,30.63,29.91,9,6,17,0.00
2012-11-13,83.8,77.7,74.3,71.3,68.0,65.7,83,72,61,30.64,29.84,9,7,21,0.05
2012-11-14,83.7,76.6,74.7,69.5,67.9,66.3,82,75,57,30.61,29.48,12,7,20,0.00
2012-11-15,81.7,76.7,73.2,70.1,65.4,63.1,85,68,55,30.54,29.12,10,7,26,0.00
2012-11-16,83.8,76.0,69.6,68.8,65.4,61.3,87,70,50,30.32,29.32,10,7,24,0.02
2012-11-17,81.5,75.9,70.7,70.2,65.6,64.7,90,70,61,30.45,29.33,12,7,24,0.07
2012-11-18,84.7,76.4,74.8,69.8,66.3,64.7,80,71,57,30.45,29.73,9,6,21,0.02
2012-11-19,85.3,77.0,73.6,70.4,66.6,64.7,85,71,58,30.49,29.62,8,6,16,0.05
2012-11-22,83.8,73.2,66.0,70.8,67.6,65.0,97,83,61,30.15,29.37,6,1,9,0.06
2012-11-23,85.6,73.6,65.7,72.7,68.3,64.8,97,85,59,30.07,29.52,4,1,5,0.02
2012-11-24,86.9,75.5,68.2,73.5,69.2,66.4,95,82,57,30.07,29.47,8,2,11,0.00
2012-11-25,84.4,76.1,68.9,77.5,69.2,66.3,95,80,63,30.01,29.44,7,3,11,0.00
2012-11-26,83.3,76.0,69.1,69.7,66.4,63.7,92,73,60,30.21,29.76,13,6,16,0.02
2012-11-27,79.2,75.3,72.1,64.6,62.4,59.7,75,64,57,30.25,29.73,11,7,16,0.00
2012-11-28,82.0,73.5,70.0,66.5,63.1,58.6,85,71,46,30.15,28.78,12,4,17,0.00
2012-11-29,87.6,72.9,62.6,77.5,65.7,61.5,97,79,51,30.19,29.05,6,1,14,0.01
2012-11-30,67.5,62.5,61.9,64.5,60.9,60.5,95,95,90,30.11,28.92,1,0,3,0.00
2012-12-1,88.3,70.2,61.9,69.0,63.3,60.5,95,81,43,30.32,28.92,6,1,14,0.00
2012-12-2,90.1,77.0,69.6,70.4,66.7,61.6,88,72,42,30.45,29.73,6,2,14,0.00
2012-12-3,88.3,78.7,70.5,74.1,70.5,68.2,94,76,57,30.47,29.73,7,3,14,0.05
2012-12-4,90.0,76.1,68.0,76.1,71.8,66.8,96,87,54,30.27,29.66,6,2,14,0.04
2012-12-5,83.8,76.8,71.6,75.6,72.1,69.2,95,86,70,30.28,29.56,5,2,11,0.02
2012-12-6,84.6,74.8,67.1,73.6,69.0,64.7,95,83,62,30.30,28.39,8,2,18,0.00
2012-12-7,86.7,75.2,66.6,74.6,68.3,64.5,96,80,53,30.15,28.36,5,2,10,0.00
2012-12-8,84.2,78.3,70.3,71.5,69.9,66.6,89,76,63,30.32,29.28,8,6,23,0.00
2012-12-9,82.2,77.1,74.7,70.6,69.2,67.5,85,77,65,30.32,29.64,9,6,23,0.00
2012-12-10,83.7,77.4,75.0,70.1,67.4,64.3,83,72,58,30.36,29.71,10,7,24,0.00
2012-12-11,81.5,76.1,72.9,70.6,67.0,64.3,85,73,61,30.18,29.10,10,7,24,0.02
2012-12-12,81.5,76.0,72.3,68.5,66.6,64.4,85,73,59,30.10,28.76,14,8,30,0.02
2012-12-13,81.3,75.1,69.6,70.2,67.7,65.1,93,78,65,30.06,27.32,14,8,32,0.13
2012-12-14,74.5,74.2,70.5,69.2,67.3,66.2,91,79,77,29.95,27.59,12,9,32,0.06
2012-12-15,74.5,73.4,71.6,68.3,67.3,66.5,88,81,78,29.86,28.97,10,8,29,0.05
2012-12-16,75.9,74.3,71.6,69.7,67.4,66.9,92,79,77,30.22,29.16,12,9,26,0.08
2012-12-17,77.9,74.1,70.9,70.4,67.5,65.2,92,80,72,30.27,29.15,12,9,32,0.14
2012-12-18,81.7,74.9,70.0,70.4,68.1,65.4,89,80,62,30.25,28.70,10,6,23,0.35
2012-12-19,80.6,75.1,71.1,71.0,68.4,66.1,91,80,70,30.19,28.23,10,7,24,0.04
2012-12-20,74.7,74.0,71.2,67.4,66.4,64.0,86,77,72,30.17,28.43,11,9,25,0.01
2012-12-21,80.6,75.0,71.4,67.6,65.3,61.8,84,72,60,29.94,28.85,11,8,28,0.01
2012-12-22,83.1,75.2,73.4,67.1,64.9,62.6,76,71,53,30.09,29.06,8,6,20,0.01
2012-12-23,87.3,74.6,64.8,71.8,63.1,58.8,90,69,44,30.09,29.08,6,2,14,0.00
2012-12-24,81.1,71.3,63.1,70.2,65.9,60.4,93,83,64,29.99,28.24,5,1,9,0.00
2012-12-25,79.9,74.6,70.0,72.4,68.9,65.9,94,83,71,29.92,28.90,6,3,14,0.06
2012-12-26,82.6,76.3,73.8,68.6,66.9,65.4,79,73,62,30.01,27.45,8,5,21,0.00
2012-12-27,82.8,76.0,73.4,67.4,66.2,64.7,79,72,57,30.11,28.80,8,5,20,0.00
2012-12-28,84.7,73.2,62.6,74.0,65.6,60.6,95,78,57,30.16,29.11,7,2,13,0.00
2012-12-29,83.7,73.3,62.8,73.7,66.5,61.3,97,80,59,30.05,29.03,5,2,11,0.00
2012-12-30,83.1,74.6,68.7,72.5,69.5,66.7,94,84,67,30.25,29.31,7,3,15,0.27
2012-12-31,86.2,72.9,66.9,76.0,68.4,65.8,96,87,62,30.29,29.73,10,2,16,0.01
2013-1-1,76.5,71.9,68.0,69.9,67.0,63.4,94,85,75,30.32,29.47,12,6,23,0.06